星链-31018 (STARLINK-31018 )

导读

STARLINK-31018是美国太空探索技术公司星链(Starlink)星座的卫星,于2023年12月23日发射,服务全球卫星互联网接入,提供高速低延迟网络服务,满足偏远地区通信、移动网络覆盖等需求,属于星链批量部署的卫星之一,助力完善低轨通信星座组网。

Basic Information
目录编号:
58635
目录名称:
STARLINK-31018
国际标识:
2023-203T
轨道中心:
EARTH
卫星名称:
星链-31018
卫星全名:
星链-31018 (STARLINK-31018 )
卫星状态:
在轨 (已飞行905 天)
发射日期:
2023-12-23 UTC
国别 :
美国 (US)
星等 :
--
Orbit Information
数据来源 国际轨道数据 AOE轨道数据
星历时间 2026-06-14T15:15:53+0800
20小时前
查看轨道信息
2026-06-15T07:00:00+0800
5小时前
查看轨道信息
半长轴 6861.194km 6861.175km
偏心率 0.000234 0.0001424
轨道倾角 43.004° 43.000°
近地点辐角 270.395° 261.053°
升交点赤经 241.770° 238.070°
平近点角 89.663° 108.811°
近地点 481.451km 482.06km
远地点 484.663km 484.016km
周期 94.267分钟 94.267分钟
每日圈数 15.275776 15.27584
Detailed Information
固有亮度:
5
最大亮度:
0.3
卫星平台:
Starlink v2.0 mini
覆盖范围:
全球
运营商:
太空探索技术公司
运营商所在国:
美国
制造商(研发单位):
太空探索技术公司
制造商所在国:
美国
使用方式:
暂无
Satellite Introduction
星链(Starlink)计划是由太空探索技术公司(SpaceX)提出的一个巨型低轨卫星互联网星座项目,计划在2019年至2024年间在太空搭建由约1.2万颗卫星组成的“星链”网络,其中1584颗将部署在地球上空550千米处的近地轨道,并从2020年开始工作。该卫星仍在工作。
2D Orbit Map
3D Orbit Map
Orbit Altitude Analysis Chart
Orbit Inclination Analysis Chart
Orbit Comprehensive Analysis Chart
View Comprehensive Chart